This demonstration page uses our WeatherBlox Daily Observations layout. Learn more.

Left ArrowRight Arrow

34.16533, -84.80231

Hourly Observations for April 23, 2020

Temp ( °F °C ) Dew Point ( °F °C ) Humidity (%) Winds ( mph kmh ) Pressure ( in mb ) Visibility ( mi km ) Precip ( " mm )
12:53 am 00:53 Cloudy with Light Rain 56 13.3 54 12.2 93 93 Calm 30.06 1018 7 11 0.05 1.27
1:53 am 01:53 Cloudy with Light Rain 56 13.3 52 11.1 87 87 VRB 3 6 30.02 1017 7 11 0.06 1.52
2:53 am 02:53 Cloudy with Light Rain 55 12.8 51 10.6 87 87 VRB 6 9 29.92 1013 10 16 0.05 1.27
3:53 am 03:53 Cloudy with Light Rain 55 12.8 51 10.6 87 87 NE 7 11 29.91 1013 10 16 0.03 0.76
4:53 am 04:53 Cloudy with Light Rain 54 12.2 51 10.6 90 90 VRB 3 6 29.88 1012 10 16 0.02 0.51
5:53 am 05:53 Cloudy with Light Rain 54 12.2 51 10.6 90 90 Calm 29.95 1014 9 14 0.04 1.02
6:53 am 06:53 Cloudy with Heavy Rain 54 12.2 51 10.6 90 90 ESE 6 9 29.95 1014 4 6 0.27 6.86
7:12 am 07:12 Cloudy with Nearby Thunderstorms 54 12.2 51 10.6 90 90 ENE 6 9 29.98 1015 4 6 0.13 3.30
7:27 am 07:27 Cloudy with Rain 54 12.2 51 10.6 90 90 E 7 11 29.98 1015 5 8 0.20 5.08
7:53 am 07:53 Cloudy with Heavy Rain 54 12.2 51 10.6 90 90 SE 9 15 29.98 1015 4 6 0.36 9.14
8:48 am 08:48 Cloudy with Rain 54 12 52 11 94 94 SE 16 26 29.92 1013 3 4 0.32 8.13
8:53 am 08:53 Cloudy with Nearby Thunderstorms 54 12.2 51 10.6 90 90 SE 18 30 29.89 1012 3 5 0.33 8.38
9:10 am 09:10 Cloudy with Light Rain 55 12.8 51 10.6 87 87 SE 17 28 29.88 1012 6 10 0.03 0.76
9:53 am 09:53 undefined 56 13.3 52 11.1 87 87 SE 17 28 29.78 1008 10 16 0.06 1.52
10:53 am 10:53 Cloudy 58 14.4 53 11.7 84 84 VRB 5 7 29.83 1010 10 16 0.00 0.00
11:53 am 11:53 Mostly Cloudy 60 15.6 54 12.2 80 80 ESE 8 13 29.81 1010 10 16 0.00 0.00
12:31 pm 12:31 Cloudy 61 16.1 54 12.2 78 78 E 9 15 29.82 1010 10 16 0.00 0.00
12:53 pm 12:53 Cloudy 61 16.1 55 12.8 81 81 VRB 6 9 29.79 1009 10 16 0.00 0.00
1:53 pm 13:53 Cloudy 63 17.2 56 13.3 78 78 SE 8 13 29.75 1007 10 16 0.00 0.00
2:53 pm 14:53 Cloudy 64 17.8 57 13.9 78 78 SE 8 13 29.73 1007 10 16 0.00 0.00
3:53 pm 15:53 Cloudy 65 18.3 58 14.4 78 78 ENE 5 7 29.70 1006 10 16 0.00 0.00
5:32 pm 17:32 Mostly Cloudy 67 19.4 59 15 76 76 SE 9 15 29.67 1005 10 16 0.00 0.00
5:45 pm 17:45 Mostly Cloudy 67 19.4 59 15 76 76 SSE 10 17 29.66 1005 10 16 0.00 0.00
5:53 pm 17:53 Mostly Cloudy 67 19.4 59 15 76 76 SE 9 15 29.65 1004 10 16 0.00 0.00
6:53 pm 18:53 Mostly Cloudy 66 18.9 59 15 78 78 SSE 12 19 29.64 1004 10 16 0.00 0.00
7:39 pm 19:39 Cloudy 64 17.8 59 15 84 84 S 17 28 29.67 1005 10 16 0.00 0.00
7:53 pm 19:53 Cloudy 64 17.8 59 15 84 84 S 14 22 29.64 1004 9 14 0.00 0.00
8:11 pm 20:11 Mostly Cloudy 63 17.2 59 15 87 87 SSE 8 13 29.65 1004 10 16 0.01 0.25
8:50 pm 20:50 Partly Cloudy 63 17 59 15 88 88 S 6 9 29.65 1004 10 16 0.01 0.25
8:53 pm 20:53 Mostly Cloudy 64 17.8 59 15 84 84 VRB 5 7 29.64 1004 10 16 0.01 0.25
9:53 pm 21:53 Partly Cloudy 63 17.2 58 14.4 84 84 S 6 9 29.66 1004 10 16 0.00 0.00
10:53 pm 22:53 Clear 61 16.1 57 13.9 87 87 VRB 3 6 29.67 1005 10 16 0.00 0.00
11:12 pm 23:12 Mostly Cloudy 62 16.7 57 13.9 84 84 VRB 3 6 29.69 1005 10 16 0.00 0.00
11:32 pm 23:32 Partly Cloudy 61 16.1 56 13.3 84 84 S 6 9 29.69 1006 10 16 0.00 0.00
11:53 pm 23:53 Partly Cloudy 61 16.1 57 13.9 87 87 SSW 3 6 29.67 1005 10 16 0.00 0.00

Powered by AerisWeather